| time (UTC) | temp F | wind direction | speed MPH | gust MPH | rain 1hr in | rain 24hr in | rain mn in | humidity % | barometer mb |
| 20260507113739 | 29 | 14 | 2.0 | 3.0 | 0.00 | 0.00 | 0.00 | 71 | 1009.2 |
| 20260507112839 | 29 | 79 | 2.0 | 3.0 | 0.00 | 0.00 | 0.00 | 71 | 1009.2 |
| 20260507111918 | 29 | 80 | 2.0 | 3.0 | 0.00 | 0.00 | 0.00 | 71 | 1009.3 |
| 20260507111018 | 30 | 79 | 2.0 | 3.0 | 0.00 | 0.00 | 0.00 | 70 | 1009.2 |
| 20260507110118 | 30 | 71 | 2.0 | 3.0 | 0.00 | 0.00 | 0.00 | 70 | 1009.2 |
| 20260507105518 | 30 | 62 | 2.0 | 3.0 | 0.00 | 0.00 | 0.00 | 70 | 1009.2 |
| 20260507104618 | 29 | 80 | 2.0 | 3.0 | 0.00 | 0.00 | 0.00 | 71 | 1009.3 |
| 20260507103718 | 29 | 80 | 2.0 | 3.0 | 0.00 | 0.00 | 0.00 | 70 | 1009.4 |
| 20260507102839 | 29 | 81 | 3.0 | 4.0 | 0.00 | 0.00 | 0.00 | 70 | 1009.3 |
| 20260507101918 | 29 | 75 | 3.0 | 4.0 | 0.00 | 0.00 | 0.00 | 70 | 1009.4 |
| 20260507101018 | 29 | 79 | 3.0 | 4.0 | 0.00 | 0.00 | 0.00 | 70 | 1009.5 |
| 20260507100118 | 29 | 74 | 3.0 | 4.0 | 0.00 | 0.00 | 0.00 | 69 | 1009.6 |
| 20260507095539 | 30 | 50 | 3.0 | 4.0 | 0.00 | 0.00 | 0.00 | 69 | 1009.5 |
| 20260507094618 | 30 | 1 | 3.0 | 4.0 | 0.00 | 0.00 | 0.00 | 68 | 1009.6 |
| 20260507093718 | 30 | 23 | 3.0 | 4.0 | 0.00 | 0.00 | 0.00 | 69 | 1009.6 |
| 20260507092818 | 30 | 89 | 3.0 | 4.0 | 0.00 | 0.00 | 0.00 | 67 | 1009.5 |
| 20260507091939 | 30 | 91 | 3.0 | 4.0 | 0.00 | 0.00 | 0.00 | 67 | 1009.5 |
| 20260507091018 | 30 | 35 | 3.0 | 4.0 | 0.00 | 0.00 | 0.00 | 67 | 1009.6 |
| 20260507090118 | 31 | 42 | 3.0 | 4.0 | 0.00 | 0.00 | 0.00 | 66 | 1009.6 |
| 20260507085517 | 31 | 96 | 3.0 | 4.0 | 0.00 | 0.00 | 0.00 | 66 | 1009.5 |
| 20260507084618 | 31 | 16 | 2.0 | 4.0 | 0.00 | 0.00 | 0.00 | 66 | 1009.5 |
| 20260507083718 | 32 | 1 | 2.0 | 3.0 | 0.00 | 0.00 | 0.00 | 66 | 1009.5 |
| 20260507082817 | 31 | 53 | 3.0 | 3.0 | 0.00 | 0.00 | 0.00 | 66 | 1009.5 |
| 20260507081917 | 31 | 99 | 2.0 | 3.0 | 0.00 | 0.00 | 0.00 | 67 | 1009.5 |
| 20260507081039 | 31 | 45 | 2.0 | 3.0 | 0.00 | 0.00 | 0.00 | 67 | 1009.5 |
| 20260507080117 | 30 | 1 | 2.0 | 3.0 | 0.00 | 0.00 | 0.00 | 68 | 1009.4 |
| 20260507075518 | 30 | 6 | 2.0 | 3.0 | 0.00 | 0.00 | 0.00 | 68 | 1009.4 |
| 20260507074638 | 30 | 58 | 2.0 | 6.0 | 0.00 | 0.00 | 0.00 | 67 | 1009.4 |
| 20260507073717 | 30 | 96 | 4.0 | 6.0 | 0.00 | 0.00 | 0.00 | 67 | 1009.5 |
| 20260507072818 | 30 | 99 | 4.0 | 6.0 | 0.00 | 0.00 | 0.00 | 67 | 1009.5 |
| 20260507071917 | 31 | 98 | 4.0 | 6.0 | 0.00 | 0.00 | 0.00 | 65 | 1009.5 |
| 20260507071038 | 32 | 96 | 4.0 | 6.0 | 0.00 | 0.00 | 0.00 | 64 | 1009.5 |
| 20260507070117 | 32 | 94 | 3.0 | 7.0 | 0.00 | 0.00 | 0.00 | 63 | 1009.5 |
| 20260507065517 | 33 | 100 | 4.0 | 7.0 | 0.00 | 0.00 | 0.00 | 62 | 1009.6 |
| 20260507064618 | 34 | 94 | 5.0 | 7.0 | 0.00 | 0.00 | 0.00 | 62 | 1009.6 |
| 20260507063717 | 33 | 88 | 5.0 | 7.0 | 0.00 | 0.00 | 0.00 | 63 | 1009.6 |
| 20260507062817 | 33 | 83 | 5.0 | 7.0 | 0.00 | 0.00 | 0.00 | 62 | 1009.6 |
| 20260507061917 | 34 | 91 | 6.0 | 7.0 | 0.00 | 0.00 | 0.00 | 62 | 1009.6 |
| 20260507061038 | 34 | 93 | 6.0 | 8.0 | 0.00 | 0.00 | 0.00 | 62 | 1009.6 |
| 20260507060117 | 34 | 89 | 5.0 | 7.0 | 0.00 | 0.00 | 0.00 | 61 | 1009.7 |
| 20260507055517 | 34 | 85 | 6.0 | 8.0 | 0.00 | 0.00 | 0.00 | 61 | 1009.7 |
| 20260507054617 | 34 | 89 | 5.0 | 6.0 | 0.00 | 0.00 | 0.00 | 61 | 1009.7 |
| 20260507053738 | 34 | 58 | 5.0 | 7.0 | 0.00 | 0.00 | 0.00 | 60 | 1009.7 |
| 20260507052817 | 34 | 25 | 5.0 | 7.0 | 0.00 | 0.00 | 0.00 | 60 | 1009.8 |
| 20260507051917 | 35 | 1 | 4.0 | 6.0 | 0.00 | 0.00 | 0.00 | 59 | 1009.8 |
| 20260507051017 | 35 | 3 | 4.0 | 8.0 | 0.00 | 0.00 | 0.00 | 59 | 1010.0 |
| 20260507050117 | 35 | 2 | 5.0 | 8.0 | 0.00 | 0.00 | 0.00 | 58 | 1010.0 |
| 20260507045517 | 35 | 4 | 5.0 | 8.0 | 0.00 | 0.00 | 0.00 | 58 | 1010.0 |
| 20260507044617 | 36 | 1 | 4.0 | 8.0 | 0.00 | 0.00 | 0.00 | 57 | 1010.0 |
| 20260507043717 | 37 | 1 | 5.0 | 10.0 | 0.00 | 0.00 | 0.00 | 55 | 1010.1 |
| 20260507042817 | 37 | 1 | 5.0 | 10.0 | 0.00 | 0.00 | 0.00 | 54 | 1010.0 |
| 20260507041917 | 37 | 1 | 5.0 | 8.0 | 0.00 | 0.00 | 0.00 | 55 | 1010.1 |
| 20260507041017 | 37 | 1 | 4.0 | 5.0 | 0.00 | 0.00 | 0.00 | 53 | 1010.2 |
| 20260507040138 | 38 | 1 | 4.0 | 9.0 | 0.00 | 0.00 | 0.00 | 51 | 1010.2 |
| 20260507035517 | 39 | 1 | 4.0 | 9.0 | 0.00 | 0.00 | 0.00 | 50 | 1010.2 |
| 20260507034638 | 39 | 1 | 5.0 | 9.0 | 0.00 | 0.00 | 0.00 | 50 | 1010.3 |
| 20260507033717 | 39 | 1 | 4.0 | 6.0 | 0.00 | 0.00 | 0.00 | 49 | 1010.4 |
| 20260507032838 | 39 | 1 | 3.0 | 5.0 | 0.00 | 0.00 | 0.00 | 50 | 1010.4 |
| 20260507031917 | 39 | 1 | 3.0 | 5.0 | 0.00 | 0.00 | 0.00 | 49 | 1010.5 |
| 20260507031017 | 39 | 1 | 4.0 | 6.0 | 0.00 | 0.00 | 0.00 | 49 | 1010.5 |
| 20260507030117 | 39 | 1 | 4.0 | 6.0 | 0.00 | 0.00 | 0.00 | 50 | 1010.4 |
| 20260507025517 | 39 | 1 | 4.0 | 5.0 | 0.00 | 0.00 | 0.00 | 49 | 1010.4 |
| 20260507024617 | 39 | 1 | 4.0 | 6.0 | 0.00 | 0.00 | 0.00 | 50 | 1010.4 |
| 20260507023717 | 40 | 1 | 4.0 | 5.0 | 0.00 | 0.00 | 0.00 | 48 | 1010.4 |
| 20260507022817 | 40 | 40 | 4.0 | 6.0 | 0.00 | 0.00 | 0.00 | 48 | 1010.5 |
| 20260507021917 | 42 | 46 | 4.0 | 5.0 | 0.00 | 0.00 | 0.00 | 45 | 1010.5 |
| 20260507021017 | 43 | 38 | 3.0 | 5.0 | 0.00 | 0.00 | 0.00 | 44 | 1010.4 |
| 20260507020117 | 45 | 29 | 3.0 | 5.0 | 0.00 | 0.00 | 0.00 | 42 | 1010.4 |
| 20260507015517 | 46 | 27 | 2.0 | 5.0 | 0.00 | 0.00 | 0.00 | 41 | 1010.5 |
| 20260507014617 | 47 | 22 | 3.0 | 8.0 | 0.00 | 0.00 | 0.00 | 41 | 1010.5 |
| 20260507013717 | 48 | 8 | 4.0 | 8.0 | 0.00 | 0.00 | 0.00 | 41 | 1010.6 |
| 20260507012817 | 49 | 355 | 5.0 | 10.0 | 0.00 | 0.00 | 0.00 | 40 | 1010.5 |
| 20260507011917 | 50 | 2 | 7.0 | 10.0 | 0.00 | 0.00 | 0.00 | 39 | 1010.5 |
| 20260507011017 | 50 | 354 | 6.0 | 11.0 | 0.00 | 0.00 | 0.00 | 39 | 1010.5 |
| 20260507010117 | 50 | 346 | 7.0 | 12.0 | 0.00 | 0.00 | 0.00 | 36 | 1010.6 |
| 20260507005517 | 51 | 341 | 7.0 | 12.0 | 0.00 | 0.00 | 0.00 | 38 | 1010.6 |
| 20260507004617 | 51 | 359 | 7.0 | 14.0 | 0.00 | 0.00 | 0.00 | 38 | 1010.6 |
| 20260507003738 | 51 | 351 | 8.0 | 15.0 | 0.00 | 0.00 | 0.00 | 37 | 1010.7 |
| 20260507002817 | 51 | 330 | 9.0 | 15.0 | 0.00 | 0.00 | 0.00 | 37 | 1010.7 |
| 20260507001917 | 50 | 310 | 9.0 | 14.0 | 0.00 | 0.00 | 0.00 | 37 | 1010.7 |
| 20260507001017 | 50 | 310 | 9.0 | 17.0 | 0.00 | 0.00 | 0.00 | 38 | 1010.7 |
| 20260507000116 | 50 | 316 | 8.0 | 17.0 | 0.00 | 0.00 | 0.00 | 40 | 1010.7 |
| 20260506235517 | 48 | 313 | 8.0 | 14.0 | 0.00 | 0.00 | 0.00 | 38 | 1010.9 |
| 20260506234638 | 49 | 313 | 8.0 | 17.0 | 0.00 | 0.00 | 0.00 | 38 | 1011.0 |
| 20260506233717 | 49 | 329 | 10.0 | 17.0 | 0.00 | 0.00 | 0.00 | 36 | 1011.1 |
| 20260506232816 | 50 | 326 | 8.0 | 17.0 | 0.00 | 0.00 | 0.00 | 39 | 1011.1 |
| 20260506231917 | 50 | 317 | 10.0 | 19.0 | 0.00 | 0.00 | 0.00 | 39 | 1011.2 |
| 20260506231016 | 49 | 309 | 10.0 | 24.0 | 0.00 | 0.00 | 0.00 | 37 | 1011.2 |
| 20260506230116 | 49 | 296 | 12.0 | 24.0 | 0.00 | 0.00 | 0.00 | 38 | 1011.2 |
| 20260506225538 | 49 | 292 | 10.0 | 18.0 | 0.00 | 0.00 | 0.00 | 38 | 1011.2 |
| 20260506224617 | 50 | 288 | 10.0 | 18.0 | 0.00 | 0.00 | 0.00 | 36 | 1011.5 |
| 20260506223716 | 51 | 306 | 7.0 | 18.0 | 0.00 | 0.00 | 0.00 | 40 | 1011.4 |
| 20260506222817 | 50 | 313 | 10.0 | 16.0 | 0.00 | 0.00 | 0.00 | 39 | 1011.6 |
| 20260506221916 | 51 | 312 | 6.0 | 14.0 | 0.00 | 0.00 | 0.00 | 38 | 1011.6 |
| 20260506221016 | 49 | 317 | 9.0 | 18.0 | 0.00 | 0.00 | 0.00 | 45 | 1011.6 |
| 20260506220116 | 50 | 301 | 12.0 | 18.0 | 0.00 | 0.00 | 0.00 | 38 | 1011.7 |
| 20260506215516 | 50 | 287 | 10.0 | 18.0 | 0.00 | 0.00 | 0.00 | 39 | 1011.7 |
| 20260506214616 | 50 | 335 | 9.0 | 17.0 | 0.00 | 0.00 | 0.00 | 39 | 1011.9 |
| 20260506213716 | 49 | 298 | 9.0 | 20.0 | 0.00 | 0.00 | 0.00 | 41 | 1011.8 |
| 20260506212816 | 49 | 285 | 11.0 | 20.0 | 0.00 | 0.00 | 0.00 | 43 | 1012.1 |
| 20260506211937 | 49 | 288 | 10.0 | 15.0 | 0.00 | 0.00 | 0.00 | 43 | 1012.2 |
| 20260506211016 | 48 | 297 | 8.0 | 14.0 | 0.00 | 0.00 | 0.00 | 43 | 1012.4 |
| 20260506210116 | 47 | 306 | 9.0 | 14.0 | 0.00 | 0.00 | 0.00 | 43 | 1012.6 |
| 20260506205516 | 47 | 310 | 7.0 | 14.0 | 0.00 | 0.00 | 0.00 | 44 | 1012.6 |
| 20260506204616 | 47 | 311 | 8.0 | 18.0 | 0.00 | 0.00 | 0.00 | 45 | 1012.8 |
| 20260506203716 | 48 | 288 | 10.0 | 16.0 | 0.00 | 0.00 | 0.00 | 41 | 1012.8 |
| 20260506202816 | 51 | 337 | 9.0 | 19.0 | 0.00 | 0.00 | 0.00 | 43 | 1012.9 |
| 20260506201916 | 48 | 310 | 10.0 | 19.0 | 0.00 | 0.00 | 0.00 | 47 | 1013.0 |
| 20260506201016 | 46 | 295 | 8.0 | 16.0 | 0.00 | 0.00 | 0.00 | 46 | 1013.1 |
| 20260506200116 | 47 | 320 | 6.0 | 15.0 | 0.00 | 0.00 | 0.00 | 46 | 1013.2 |
| 20260506195516 | 46 | 322 | 7.0 | 15.0 | 0.00 | 0.00 | 0.00 | 50 | 1013.3 |
| 20260506194616 | 46 | 307 | 9.0 | 16.0 | 0.00 | 0.00 | 0.00 | 45 | 1013.4 |
| 20260506193737 | 47 | 343 | 7.0 | 14.0 | 0.00 | 0.00 | 0.00 | 52 | 1013.5 |
| 20260506192816 | 46 | 281 | 9.0 | 16.0 | 0.00 | 0.00 | 0.00 | 48 | 1013.7 |
| 20260506191916 | 45 | 304 | 7.0 | 16.0 | 0.00 | 0.00 | 0.00 | 47 | 1013.7 |
| 20260506191016 | 45 | 321 | 8.0 | 19.0 | 0.00 | 0.00 | 0.00 | 50 | 1013.9 |
| 20260506190137 | 47 | 325 | 8.0 | 19.0 | 0.00 | 0.00 | 0.00 | 49 | 1013.9 |
| 20260506185537 | 47 | 321 | 7.0 | 13.0 | 0.00 | 0.00 | 0.00 | 50 | 1013.9 |
| 20260506184616 | 45 | 320 | 9.0 | 16.0 | 0.00 | 0.00 | 0.00 | 52 | 1014.1 |
| 20260506183737 | 45 | 334 | 10.0 | 16.0 | 0.00 | 0.00 | 0.00 | 51 | 1014.4 |
| 20260506182837 | 45 | 321 | 8.0 | 16.0 | 0.00 | 0.00 | 0.00 | 48 | 1014.5 |
| 20260506181916 | 44 | 294 | 6.0 | 15.0 | 0.00 | 0.00 | 0.00 | 49 | 1014.6 |
| 20260506181037 | 43 | 279 | 9.0 | 15.0 | 0.00 | 0.00 | 0.00 | 53 | 1014.8 |
| 20260506180116 | 43 | 275 | 7.0 | 15.0 | 0.00 | 0.00 | 0.00 | 50 | 1014.8 |
| 20260506175516 | 43 | 291 | 8.0 | 15.0 | 0.00 | 0.00 | 0.00 | 52 | 1014.9 |
| 20260506174616 | 43 | 311 | 7.0 | 13.0 | 0.00 | 0.00 | 0.00 | 51 | 1015.0 |
| 20260506173716 | 42 | 288 | 6.0 | 15.0 | 0.00 | 0.00 | 0.00 | 52 | 1015.1 |
| 20260506172837 | 42 | 298 | 9.0 | 15.0 | 0.00 | 0.00 | 0.00 | 50 | 1015.3 |
| 20260506171937 | 42 | 298 | 8.0 | 15.0 | 0.00 | 0.00 | 0.00 | 51 | 1015.3 |
| 20260506171017 | 42 | 332 | 8.0 | 14.0 | 0.00 | 0.00 | 0.00 | 52 | 1015.4 |
| 20260506170116 | 41 | 326 | 6.0 | 12.0 | 0.00 | 0.00 | 0.00 | 54 | 1015.5 |
| 20260506165537 | 41 | 302 | 8.0 | 14.0 | 0.00 | 0.00 | 0.00 | 52 | 1015.6 |
| 20260506164616 | 42 | 326 | 6.0 | 13.0 | 0.00 | 0.00 | 0.00 | 53 | 1015.6 |
| 20260506163716 | 41 | 326 | 6.0 | 13.0 | 0.00 | 0.00 | 0.00 | 57 | 1015.7 |
| 20260506162816 | 41 | 307 | 4.0 | 13.0 | 0.00 | 0.00 | 0.00 | 54 | 1015.7 |
| 20260506161916 | 40 | 319 | 5.0 | 13.0 | 0.00 | 0.00 | 0.00 | 55 | 1015.9 |
| 20260506161016 | 40 | 292 | 6.0 | 11.0 | 0.00 | 0.00 | 0.00 | 55 | 1015.9 |
| 20260506160116 | 40 | 339 | 3.0 | 12.0 | 0.00 | 0.00 | 0.00 | 57 | 1015.9 |
| 20260506155516 | 39 | 322 | 5.0 | 12.0 | 0.00 | 0.00 | 0.00 | 55 | 1016.0 |
| 20260506154616 | 39 | 319 | 4.0 | 11.0 | 0.00 | 0.00 | 0.00 | 55 | 1015.9 |
| 20260506153737 | 39 | 299 | 5.0 | 11.0 | 0.00 | 0.00 | 0.00 | 55 | 1015.9 |
| 20260506152837 | 38 | 275 | 2.0 | 9.0 | 0.00 | 0.00 | 0.00 | 57 | 1016.0 |
| 20260506151915 | 38 | 296 | 3.0 | 13.0 | 0.00 | 0.00 | 0.00 | 58 | 1016.0 |
| 20260506151036 | 38 | 299 | 6.0 | 13.0 | 0.00 | 0.00 | 0.00 | 57 | 1016.2 |
| 20260506150115 | 38 | 299 | 6.0 | 13.0 | 0.00 | 0.00 | 0.00 | 57 | 1016.1 |
| 20260506145515 | 38 | 279 | 4.0 | 10.0 | 0.00 | 0.00 | 0.00 | 58 | 1016.2 |
| 20260506144636 | 37 | 247 | 3.0 | 10.0 | 0.00 | 0.00 | 0.00 | 61 | 1016.2 |
| 20260506143715 | 36 | 244 | 6.0 | 10.0 | 0.00 | 0.00 | 0.00 | 59 | 1016.3 |
| 20260506142816 | 35 | 246 | 6.0 | 9.0 | 0.00 | 0.00 | 0.00 | 62 | 1016.2 |
| 20260506141915 | 35 | 243 | 5.0 | 9.0 | 0.00 | 0.00 | 0.00 | 65 | 1016.3 |
| 20260506141016 | 34 | 249 | 3.0 | 7.0 | 0.00 | 0.00 | 0.00 | 67 | 1016.3 |
| 20260506140115 | 33 | 244 | 3.0 | 5.0 | 0.00 | 0.00 | 0.00 | 70 | 1016.3 |
| 20260506135515 | 32 | 251 | 3.0 | 5.0 | 0.00 | 0.00 | 0.00 | 71 | 1016.3 |
| 20260506134636 | 32 | 252 | 2.0 | 3.0 | 0.00 | 0.00 | 0.00 | 74 | 1016.2 |
| 20260506133715 | 31 | 256 | 3.0 | 4.0 | 0.00 | 0.00 | 0.00 | 75 | 1016.2 |
| 20260506132836 | 30 | 255 | 3.0 | 4.0 | 0.00 | 0.00 | 0.00 | 75 | 1016.2 |
| 20260506131915 | 30 | 267 | 2.0 | 4.0 | 0.00 | 0.00 | 0.00 | 76 | 1016.3 |
| 20260506131015 | 30 | 270 | 2.0 | 3.0 | 0.00 | 0.00 | 0.00 | 78 | 1016.2 |
| 20260506130136 | 29 | 346 | 2.0 | 3.0 | 0.00 | 0.00 | 0.00 | 78 | 1016.2 |
| 20260506125515 | 29 | 1 | 2.0 | 4.0 | 0.00 | 0.00 | 0.00 | 77 | 1016.2 |
| 20260506124615 | 29 | 1 | 1.0 | 3.0 | 0.00 | 0.00 | 0.00 | 75 | 1016.1 |
| 20260506123715 | 29 | 0 | 0.0 | 0.0 | 0.00 | 0.00 | 0.00 | 75 | 1016.0 |
| 20260506122815 | 28 | 0 | 0.0 | 2.0 | 0.00 | 0.00 | 0.00 | 75 | 1015.9 |
| 20260506121915 | 28 | 359 | 0.0 | 1.0 | 0.00 | 0.00 | 0.00 | 75 | 1015.9 |
| 20260506121015 | 28 | 358 | 1.0 | 2.0 | 0.00 | 0.00 | 0.00 | 75 | 1015.8 |
| 20260506120115 | 28 | 357 | 1.0 | 3.0 | 0.00 | 0.00 | 0.00 | 75 | 1015.7 |
| 20260506115515 | 27 | 358 | 1.0 | 3.0 | 0.00 | 0.00 | 0.00 | 75 | 1015.7 |
| 20260506114615 | 27 | 360 | 0.0 | 2.0 | 0.00 | 0.00 | 0.00 | 77 | 1015.7 |